Other Public Products
Issued by NWS Grand Forks, ND

Home | Current Version | Previous Version | Text Only | Print | Product List | Glossary Off
Versions: 1 2 3 4 5 6 7 8 9 10 11 12 13 14 15 16 17 18 19 20 21 22 23 24 25 26 27 28 29 30 31 32 33 34 35 36 37 38 39 40 41 42 43 44 45 46 47 48 49 50

000
FPUS83 KFGF 201931
OPUFGF
PRAIRIE TO PINES WEATHER ROUNDUP
NATIONAL WEATHER SERVICE EASTERN NORTH DAKOTA/GRAND FORKS ND
200 PM CDT WED SEP 20 2017

 **SATELLITE DATA USED TO AUGMENT SKY COVER AT AUTOMATED STATIONS**
 *****  WEATHER ACROSS EASTERN NORTH DAKOTA  *****

CITY           SKY/WX    TMP DP  RH WIND       PRES   REMARKS
GRAND FORKS    FAIR      70  40  33 SW13G24   29.71R
GRAND FORKS AF FAIR      71  37  29 SW12      29.71R
GRAND CITY NWS NOT AVBL
BUXTON           N/A     72  37  28 SW13        N/A
DEVILS LAKE    FAIR      66  43  43 SW25      29.67S
FARGO          FAIR      71  38  29 SW18      29.76S
WAHPETON ARPT  FAIR      68  37  32 W14       29.80F
$$

 *****  WEATHER ACROSS CENTRAL AND WESTERN NORTH DAKOTA  *****

CITY           SKY/WX    TMP DP  RH WIND       PRES   REMARKS
JAMESTOWN      FAIR      68  39  34 SW20G28   29.74R
BISMARCK       FAIR      69  37  30 W16G31    29.72F
MINOT          FAIR      66  37  34 SW20G30   29.61S
MINOT AFB      FAIR      65  38  35 SW16G28   29.59S
GARRISON       NOT AVBL
WILLISTON      FAIR      63  37  38 SW17G25   29.60F
DICKINSON      FAIR      66  32  28 SW21G33   29.65F
HETTINGER      FAIR      66  32  28 SW18G24   29.72F
$$

 *****  OTHER OBSERVATIONS NORTHEAST NORTH DAKOTA  *****

CITY           SKY/WX    TMP DP  RH WIND       PRES   REMARKS
WALHALLA       FAIR     N/A N/A N/A S15G24    29.65R
LANGDON        FAIR      68  36  30 SW18G30   29.66R
CAVALIER       FAIR      68  37  32 SW14G21   29.66R
GRAFTON        FAIR      70  39  32 SW20      29.70S
CANDO          FAIR      68  41  37 SW20G32   29.66R
FORT TOTTEN      N/A     66  40  38 SW14      29.95S
ROLLA          FAIR      64  39  39 SW25G36   29.61F
RUGBY          FAIR      64  41  42 SW22G29   29.63R
 ***** THE ABOVE OBSERVATIONS ARE NON NWS ARE NOT QUALITY
        CONTROLLED AND MAY MIS-REPORT RAIN FOR SNOW...
$$

 *****  OTHER OBSERVATIONS SOUTHEAST NORTH DAKOTA *****

CITY           SKY/WX    TMP DP  RH WIND       PRES   REMARKS
COOPERSTOWN    FAIR      68  41  37 SW22G29   29.74S
VALLEY CITY    FAIR      68  39  34 W20G28    29.77S
OAKES          NOT AVBL
GWINNER        CLEAR     68  41  37 W13       29.80S
SHEYENNE NWR     N/A     69  40  35 W14       29.95S
BUFFALO          N/A     69  32  25 NW12        N/A
WYNDMERE       NOT AVBL
 ***** THE ABOVE OBSERVATIONS ARE NON NWS ARE NOT QUALITY
       CONTROLLED AND MAY MIS-REPORT RAIN FOR SNOW...
$$

  *****  WEATHER ACROSS NORTHERN MINNESOTA  *****

CITY           SKY/WX    TMP DP  RH WIND       PRES   REMARKS
FLAG ISLAND    FAIR      64  41  42 SW16      29.66R
WARROAD        FAIR      64  48  55 SW13G23   29.70R
ROSEAU         FAIR      66  45  45 W12G21    29.70R
HALLOCK        CLOUDY    70  36  28 SW12G23   29.68R
THF RVR FALLS  NOT AVBL
HALSTAD          N/A     69  39  33 W14         N/A
FOSSTON        FAIR      66  45  45 SW15      29.78R
BAUDETTE       FAIR      66  43  43 W14G22    29.70R
WASKISH        PTSUNNY   64  50  59 SW10      29.76R
CROOKSTON      FAIR      70  43  37 SW15      29.74R
$$
  *****  WEATHER ACROSS CENTRAL AND WEST MINNESOTA  *****

CITY           SKY/WX    TMP DP  RH WIND       PRES   REMARKS
BEMIDJI        FAIR      65  43  43 SW9G20    29.78R
PARK RAPIDS    FAIR      67  45  45 W13       29.80R
WADENA         FAIR      66  41  39 W8        29.80S
DETROIT LAKES  FAIR      64  41  42 W12       29.81S
MOORHEAD       FAIR      70  36  28 SW14G20   29.78S
FERGUS FALLS   FAIR      66  43  42 W9        29.80F
ELBOW LAKE     FAIR      68  41  38 W8G17     29.82S
MORRIS MN      FAIR      70  43  37 NW12      29.82R
STAPLES          N/A     66  45  45 NW10      29.81R
WHEATON        FAIR      70  36  28 W7        29.82S
$$
  *****  WEATHER ELSEWHERE ACROSS MINNESOTA  *****

CITY           SKY/WX    TMP DP  RH WIND       PRES   REMARKS
DULUTH         FAIR      70  58  65 W12       29.76R
INTRNTL FALLS  FAIR      64  50  60 W10       29.71R
ELY            FAIR      66  57  72 W12       29.74R
CLOQUET        FAIR      70  52  52 W7G23     29.77R
BRAINERD       FAIR      67  46  47 W9G20     29.80R
HIBBING        FAIR      67  52  58 W9        29.75R
ALEXANDRIA     FAIR      67  43  41 W7        29.84R
SAINT CLOUD    FAIR      70  50  49 NW10      29.81R
MINNEAPOLIS    FAIR      75  56  51 NW13G20   29.80R
$$

  *****  WEATHER ACROSS SOUTH DAKOTA  *****

CITY           SKY/WX    TMP DP  RH WIND       PRES   REMARKS
SIOUX FALLS    FAIR      68  50  52 S5        29.87S
BROOKINGS      FAIR      66  41  40 W8        29.86S
WATERTOWN      FAIR      66  42  41 W13       29.83S
HURON          FAIR      70  41  34 SW13      29.83F
SISSETON       NOT AVBL
ABERDEEN       FAIR      70  39  32 S10G16    29.80F
MITCHELL       FAIR      71  37  28 SW9       29.85F
PIERRE         FAIR      71  35  26 W12       29.78F
MOBRIDGE       FAIR      71  39  31 SW12      29.74F
RAPID CITY     SUNNY     66  27  22 W15G21    29.79F
$$

  *****  SOME WEATHER IN NEARBY STATES *****

CITY           SKY/WX    TMP DP  RH WIND       PRES   REMARKS
GLASGOW MT     FAIR      63  27  25 SW20G30   29.53S
GREAT FALLS MT FAIR      52  30  43 SW24G33   29.53F
CHEYENNE WY    FAIR      61  31  32 S14G28    29.97F
SCOTTSBLUFF NE FAIR      70  28  21 VRB6      29.89F
OMAHA NE       FAIR      79  55  43 NW17      29.83S
DES MOINES IA  PTSUNNY   87  69  54 S10       29.77S HX  91
DAVENPORT IA   FAIR      90  70  51 S13G22    29.82F HX  95
CHICAGO IL     FAIR      91  67  44 S14G21    29.89F HX  94
EAU CLAIRE WI  FAIR      77  65  66 W14G20    29.77R
LA CROSSE WI   PTSUNNY   83  70  64 SW9       29.76S
$$

  *****  SOME NATIONAL WEATHER *****

CITY           SKY/WX    TMP DP  RH WIND       PRES   REMARKS
LA GUARDIA NY  PTSUNNY   78  66  66 N15G24    29.85F
RALEIGH NC     FAIR      90  63  40 VRB3      29.96F HX  91
ATLANTA GA     FAIR      88  64  44 NW8       30.04F
NEW ORLEANS LA LGT RAIN  86  76  71 VRB5      29.99F HX  96
OKLAHOMA CITY  FAIR      89  70  53 S16G24    29.82F HX  94
ALBUQUERQUE NM FAIR      79  24  13 SW10      30.07F
SALT LAKE CITY PTSUNNY   71  30  21 S18       29.84F
LOS ANGELES CA PTSUNNY   75  61  61 W9        29.90F
BOISE ID       PTSUNNY   54  45  71 N17       29.69R
SEATTLE WA     CLOUDY    53  48  83 NW6       29.71R
$$

*** WEATHER ACROSS MANITOBA...SASKATCHEWAN AND ONTARIO ***
                ***ONTARIO***

CITY           SKY/WX    TMP DP  RH WIND       PRES   REMARKS
GERALDTON      PTSUNNY   68  59  73 S16G29    29.77F
THUNDER BAY    LGT RAIN  63  61  94 SE5       29.71S FOG
SIOUX LOOKOUT  PTSUNNY   59  55  88 SW6       29.67R
TORONTO        MOSUNNY   77  64  65 SE13      30.01F
BIG TROUT LK   LGT RAIN  61  52  72 SE15G24   29.56F
PICKLE LAKE    LGT RAIN  57  57 100 S10       29.59S FOG
DRYDEN         PTSUNNY   61  52  72 SW16G23   29.66R
KENORA         MOSUNNY   63  45  51 W14G25    29.65R
$$
                *** MANITOBA***

CITY           SKY/WX    TMP DP  RH WIND       PRES   REMARKS
BRANDON        PTSUNNY   64  45  48 SW24G33   29.54S
DAUPHIN        SUNNY     64  41  42 SW20G29   29.45F
ISLAND LAKE    LGT RAIN  57  52  82 S15G24    29.40R
PILOT MOUND      N/A     64  37  36 SW22G30     N/A
THE PAS        LGT RAIN  46  45  93 SW17G25   29.20R FOG
THOMPSON       LGT RAIN  48  46  93 E14G24    29.25F
WINNIPEG       MOSUNNY   68  37  32 SW16G24   29.60R
LYNN LAKE      LGT RAIN  43  41  93 NE22G37   29.31S
CHURCHILL      CLOUDY    45  39  81 E26G33    29.84F
GILLAM         LGT RAIN  48  46  93 E13G26    29.45F VSB 1/2
$$
                ***SASKATCHEWAN***

CITY           SKY/WX    TMP DP  RH WIND       PRES   REMARKS
ESTEVAN        PTSUNNY   63  34  34 SW25G35   29.55S
KINDERSLEY     MOSUNNY   55  32  41 SW9G17    29.35S
LLOYDMINSTER   PTSUNNY   50  39  66 SW7       29.33R
PRINCE ALBERT  PTSUNNY   57  41  54 W10G22    29.32S
REGINA         MOSUNNY   61  34  36 SW21G30   29.45F
YORKTON        SUNNY     61  37  41 SW20G29   29.42S



USA.gov is the U.S. government's official web portal to all federal, state and local government web resources and services.